sat.trackr.live / text

‹ back to catalog

CROCUBE

NORAD 62394 · 2024-247T

PAYLOAD ACTIVE UNKNOWN

§ Identity

Operator
Country
HRV
Launch date
2024-12-21
Launch site
AFWTR
Launch vehicle
Mass (kg)
RCS (m²)

Purposes: tech_demo

External: N2YO · Heavens-Above · Gunter

§ Orbital elements

Epoch: 2026-05-24T17:36:33.991200Z

Period
93.12 min
Inclination
44.9732°
Eccentricity
0.0006365
Mean motion
15.46372478 rev/d
Perigee alt
423.0 km
Apogee alt
431.7 km
Semi-major
6,805.5 km
B*
6.1985e-4
RAAN
31.5448°
Arg perigee
203.6864°
Mean anomaly
156.3734°
Rev number
7,971

§ Raw data

CROCUBE1 62394U 24247T   26144.73372675  .00031105  00000+0  61985-3 0  99912 62394  44.9732  31.5448 0006365 203.6864 156.3734 15.46372478 79719

JSON: /api/v1/satellites/62394 · /tle

For live sub-satellite position, see the globe view (requires WebGL).

§ Visibility from observer

Set your observer location to see the next 7 days of passes ≥ 10°. The values pass through the URL so the page stays shareable.

No JS? Fill the form by hand. The geolocation button needs JavaScript.

§ Radio — SatNOGS DB

ModeDescriptionDownlinkUplink
CW CroCube UHF CW Beacon 436.775 MHz
GFSK Mode U - GFSK9k6 - AX.25 G3RUH 436.775 MHz
GFSK Mode U/U - GFSK9k6 - Digipeater - AX.25 436.775 MHz 436.775 MHz

3 transmitters · refreshed weekly from db.satnogs.org